EW7133 Weather Reports


Display with metric or nautical units.
time (UTC)temp
F
wind
direction
speed
MPH
gust
MPH
rain 1hr
in
rain 24hr
in
rain mn
in
humidity
%
barometer
mb
20260504040116 47 360 0.0 0.0 0.00 0.00 0.00 60 1012.3
20260504034557 47 360 0.0 0.0 0.00 0.00 0.00 60 1012.2
20260504033039 47 270 0.0 0.0 0.00 0.00 0.00 62 1012.2
20260504031539 47 270 0.0 0.0 0.00 0.00 0.00 62 1012.2
20260504030021 47 270 0.0 0.0 0.00 0.00 0.00 62 1012.1
20260504024522 47 270 0.0 0.0 0.00 0.00 0.00 61 1012.1
20260504023003 47 269 0.0 0.0 0.00 0.00 0.00 61 1012.2
20260504021503 47 269 0.0 0.0 0.00 0.00 0.00 60 1012.1
20260504020046 47 269 0.0 0.0 0.00 0.00 0.00 60 1012.1
20260504014557 47 269 0.0 0.0 0.00 0.00 0.00 60 1012.1
20260504013027 47 269 0.0 0.0 0.00 0.00 0.00 60 1012.0
20260504011527 48 269 0.0 0.0 0.00 0.00 0.00 58 1011.8
20260504010009 49 269 0.0 0.0 0.00 0.00 0.00 57 1011.6
20260504004508 50 269 0.0 0.0 0.00 0.00 0.00 55 1011.3
20260504003101 52 269 0.0 0.0 0.00 0.00 0.00 52 1011.2
20260504001605 54 269 0.0 0.0 0.00 0.00 0.00 48 1011.0
20260504000033 56 269 0.0 0.0 0.00 0.00 0.00 45 1010.8
20260503234534 56 268 0.0 0.0 0.00 0.00 0.00 42 1010.6
20260503233017 57 261 0.0 0.0 0.00 0.00 0.00 41 1010.5
20260503231514 58 247 0.0 0.0 0.00 0.00 0.00 39 1010.5
20260503224556 59 277 0.0 0.0 0.00 0.00 0.00 38 1010.3
20260503223038 60 229 0.0 0.0 0.00 0.00 0.00 36 1010.4
20260503221537 60 279 0.0 0.0 0.00 0.00 0.00 36 1010.3
20260503220020 61 360 0.0 0.0 0.00 0.00 0.00 35 1010.2
20260503214519 60 290 0.0 0.0 0.00 0.00 0.00 35 1010.1
20260503213100 60 252 0.0 0.0 0.00 0.00 0.00 35 1010.0
20260503211600 61 334 0.0 0.0 0.00 0.00 0.00 33 1010.1
20260503210040 60 360 0.0 0.0 0.00 0.00 0.00 35 1010.0
20260503204541 59 346 0.0 0.0 0.00 0.00 0.00 36 1010.2
20260503203019 59 250 0.0 0.0 0.00 0.00 0.00 38 1010.3
20260503201519 58 230 0.0 0.0 0.00 0.00 0.00 36 1010.5
20260503200115 57 306 0.0 0.0 0.00 0.00 0.00 39 1010.6
20260503194557 56 50 0.0 0.0 0.00 0.00 0.00 36 1010.6
20260503193110 58 221 0.0 0.0 0.00 0.00 0.00 35 1011.0
20260503191537 58 221 0.0 0.0 0.00 0.00 0.00 38 1011.0
20260503190041 59 195 0.0 0.0 0.00 0.00 0.00 39 1011.1
20260503184522 59 360 0.0 0.0 0.00 0.00 0.00 35 1011.1
20260503183013 57 313 0.0 0.0 0.00 0.00 0.00 37 1011.3
20260503181619 57 275 0.0 0.0 0.00 0.00 0.00 41 1011.4
20260503180053 57 142 0.0 0.0 0.00 0.00 0.00 40 1011.5
20260503174536 57 288 0.0 0.0 0.00 0.00 0.00 38 1011.7
20260503173032 56 347 0.0 0.0 0.00 0.00 0.00 38 1011.8
20260503171521 55 263 0.0 0.0 0.00 0.00 0.00 42 1011.8
20260503081507 44 338 0.0 0.0 0.00 0.03 0.00 61 1011.0
20260503071533 45 18 0.0 0.0 0.00 0.05 0.00 61 1010.5
20260503060113 46 360 0.0 0.0 0.00 0.05 0.00 60 1010.9
20260503054539 46 332 0.0 0.0 0.00 0.05 0.00 60 1010.8
20260503053032 46 308 0.0 0.0 0.00 0.05 0.00 59 1011.0
20260503051520 46 29 0.0 0.0 0.00 0.05 0.00 59 1011.2
20260503050020 46 10 0.0 0.0 0.00 0.05 0.00 59 1011.3
20260503044557 46 38 0.0 0.0 0.00 0.05 0.00 60 1011.4
20260503043056 47 16 0.0 0.0 0.00 0.05 0.00 58 1011.6
20260503041538 47 44 0.0 0.0 0.00 0.05 0.00 57 1011.6